Time,TemperatureF,DewpointF,PressureIn,WindDirection,WindDirectionDegrees,WindSpeedMPH,WindSpeedGustMPH,Humidity,HourlyPrecipIn,Conditions,Clouds,dailyrainin,SoftwareType,DateUTC
2013-05-20 00:00:00,58.6,54.4,30.21,SSW,199,2.0,7.0,86,0.00,,,0.00,Weather View 32 v70,2013-05-20 04:00:00,
2013-05-20 00:01:00,58.4,54.2,30.21,SSE,162,2.0,7.0,86,0.00,,,0.00,Weather View 32 v70,2013-05-20 04:01:00,
2013-05-20 00:02:00,58.4,54.2,30.21,SE,138,3.0,7.0,86,0.00,,,0.00,Weather View 32 v70,2013-05-20 04:02:00,
2013-05-20 00:07:00,58.6,54.4,30.21,SE,144,3.0,7.0,86,0.00,,,0.00,Weather View 32 v70,2013-05-20 04:07:00,
2013-05-20 00:12:00,58.6,54.4,30.20,SE,138,2.0,7.0,86,0.00,,,0.00,Weather View 32 v70,2013-05-20 04:12:00,
2013-05-20 00:17:00,58.4,54.2,30.21,ESE,103,3.0,7.0,86,0.00,,,0.00,Weather View 32 v70,2013-05-20 04:17:00,
2013-05-20 00:22:00,58.2,54.0,30.21,SE,139,3.0,7.0,86,0.00,,,0.00,Weather View 32 v70,2013-05-20 04:22:00,
2013-05-20 00:27:00,58.4,54.2,30.20,SE,124,2.0,6.0,86,0.00,,,0.00,Weather View 32 v70,2013-05-20 04:27:00,
2013-05-20 00:32:00,58.2,54.0,30.21,SSW,197,1.0,6.0,86,0.00,,,0.00,Weather View 32 v70,2013-05-20 04:32:00,
2013-05-20 00:37:00,58.2,54.0,30.21,South,172,2.0,6.0,86,0.00,,,0.00,Weather View 32 v70,2013-05-20 04:37:00,
2013-05-20 00:42:00,58.2,54.0,30.21,SSE,162,2.0,6.0,86,0.00,,,0.00,Weather View 32 v70,2013-05-20 04:42:00,
2013-05-20 00:47:00,58.4,54.2,30.21,South,185,2.0,6.0,86,0.00,,,0.00,Weather View 32 v70,2013-05-20 04:47:00,
2013-05-20 00:52:00,58.2,54.0,30.21,SSE,162,1.0,6.0,86,0.00,,,0.00,Weather View 32 v70,2013-05-20 04:52:00,
2013-05-20 00:57:00,58.2,54.0,30.21,ESE,113,2.0,6.0,86,0.00,,,0.00,Weather View 32 v70,2013-05-20 04:57:00,
2013-05-20 01:02:00,58.4,54.5,30.20,SE,135,3.0,6.0,87,0.00,,,0.00,Weather View 32 v70,2013-05-20 05:02:00,
2013-05-20 01:07:00,58.2,54.3,30.19,SE,135,3.0,6.0,87,0.00,,,0.00,Weather View 32 v70,2013-05-20 05:07:00,
2013-05-20 01:12:00,58.2,54.3,30.19,ESE,111,1.0,6.0,87,0.00,,,0.00,Weather View 32 v70,2013-05-20 05:12:00,
2013-05-20 01:17:00,58.2,54.3,30.19,SE,124,2.0,6.0,87,0.00,,,0.00,Weather View 32 v70,2013-05-20 05:17:00,
2013-05-20 01:22:00,58.2,54.3,30.19,WSW,252,1.0,5.0,87,0.00,,,0.00,Weather View 32 v70,2013-05-20 05:22:00,
2013-05-20 01:27:00,58.2,54.3,30.19,SSW,201,1.0,5.0,87,0.00,,,0.00,Weather View 32 v70,2013-05-20 05:27:00,
2013-05-20 01:32:00,58.2,54.3,30.20,SW,215,1.0,5.0,87,0.00,,,0.00,Weather View 32 v70,2013-05-20 05:32:00,
2013-05-20 01:37:00,58.2,54.3,30.19,SE,137,1.0,5.0,87,0.00,,,0.00,Weather View 32 v70,2013-05-20 05:37:00,
2013-05-20 01:42:00,58.2,54.3,30.19,SE,137,2.0,5.0,87,0.00,,,0.00,Weather View 32 v70,2013-05-20 05:42:00,
2013-05-20 01:47:00,58.4,54.5,30.19,East,88,1.0,5.0,87,0.00,,,0.00,Weather View 32 v70,2013-05-20 05:47:00,
2013-05-20 01:53:00,58.2,54.3,30.18,SSE,163,3.0,5.0,87,0.00,,,0.00,Weather View 32 v70,2013-05-20 05:53:00,
2013-05-20 01:58:00,58.2,54.7,30.18,SE,133,3.0,5.0,88,0.00,,,0.00,Weather View 32 v70,2013-05-20 05:58:00,
2013-05-20 02:03:00,58.4,54.8,30.17,South,172,3.0,5.0,88,0.00,,,0.00,Weather View 32 v70,2013-05-20 06:03:00,
2013-05-20 02:08:00,57.9,54.4,30.16,SE,141,3.0,5.0,88,0.00,,,0.00,Weather View 32 v70,2013-05-20 06:08:00,
2013-05-20 02:13:00,58.1,54.6,30.16,SE,134,2.0,5.0,88,0.00,,,0.00,Weather View 32 v70,2013-05-20 06:13:00,
2013-05-20 02:18:00,57.7,54.5,30.16,SE,124,2.0,5.0,89,0.00,,,0.00,Weather View 32 v70,2013-05-20 06:18:00,
2013-05-20 02:23:00,57.7,54.5,30.16,West,267,2.0,5.0,89,0.00,,,0.00,Weather View 32 v70,2013-05-20 06:23:00,
2013-05-20 02:28:00,57.7,54.5,30.16,SE,138,2.0,6.0,89,0.00,,,0.00,Weather View 32 v70,2013-05-20 06:28:00,
2013-05-20 02:33:00,57.9,54.7,30.15,SE,136,1.0,8.0,89,0.00,,,0.00,Weather View 32 v70,2013-05-20 06:33:00,
2013-05-20 02:38:00,57.7,54.5,30.15,SE,145,3.0,8.0,89,0.00,,,0.00,Weather View 32 v70,2013-05-20 06:38:00,
2013-05-20 02:43:00,57.9,54.7,30.15,SE,141,2.0,8.0,89,0.00,,,0.00,Weather View 32 v70,2013-05-20 06:43:00,
2013-05-20 02:48:00,57.7,54.5,30.15,SE,138,1.0,8.0,89,0.00,,,0.00,Weather View 32 v70,2013-05-20 06:48:00,
2013-05-20 02:53:00,57.7,54.8,30.15,ESE,109,3.0,8.0,90,0.00,,,0.00,Weather View 32 v70,2013-05-20 06:53:00,
2013-05-20 02:58:00,57.7,54.5,30.15,South,178,1.0,8.0,89,0.00,,,0.00,Weather View 32 v70,2013-05-20 06:58:00,
2013-05-20 03:03:00,57.7,54.8,30.15,SSE,164,3.0,8.0,90,0.00,,,0.00,Weather View 32 v70,2013-05-20 07:03:00,
2013-05-20 03:08:00,57.7,54.8,30.15,SE,134,2.0,8.0,90,0.00,,,0.00,Weather View 32 v70,2013-05-20 07:08:00,
2013-05-20 03:13:00,57.7,54.8,30.14,SE,129,2.0,8.0,90,0.00,,,0.00,Weather View 32 v70,2013-05-20 07:13:00,
2013-05-20 03:18:00,57.7,54.8,30.14,East,89,1.0,8.0,90,0.00,,,0.00,Weather View 32 v70,2013-05-20 07:18:00,
2013-05-20 03:23:00,57.5,54.6,30.14,SE,135,3.0,8.0,90,0.00,,,0.00,Weather View 32 v70,2013-05-20 07:23:00,
2013-05-20 03:29:00,57.5,54.6,30.14,SW,225,2.0,8.0,90,0.00,,,0.00,Weather View 32 v70,2013-05-20 07:29:00,
2013-05-20 03:34:00,57.5,54.9,30.14,ESE,119,2.0,6.0,91,0.00,,,0.00,Weather View 32 v70,2013-05-20 07:34:00,
2013-05-20 03:39:00,57.7,55.1,30.14,South,172,3.0,6.0,91,0.00,,,0.00,Weather View 32 v70,2013-05-20 07:39:00,
2013-05-20 03:44:00,57.3,54.7,30.14,South,182,1.0,6.0,91,0.00,,,0.00,Weather View 32 v70,2013-05-20 07:44:00,
2013-05-20 03:49:00,57.3,54.7,30.14,East,82,2.0,6.0,91,0.00,,,0.00,Weather View 32 v70,2013-05-20 07:49:00,
2013-05-20 03:54:00,57.7,55.1,30.13,SSW,192,4.0,6.0,91,0.00,,,0.00,Weather View 32 v70,2013-05-20 07:54:00,
2013-05-20 03:59:00,57.5,54.9,30.13,ESE,103,1.0,6.0,91,0.00,,,0.00,Weather View 32 v70,2013-05-20 07:59:00,
2013-05-20 04:04:00,57.2,54.6,30.13,SE,130,1.0,5.0,91,0.00,,,0.00,Weather View 32 v70,2013-05-20 08:04:00,
2013-05-20 04:09:00,57.3,54.7,30.12,SSW,210,2.0,5.0,91,0.00,,,0.00,Weather View 32 v70,2013-05-20 08:09:00,
2013-05-20 04:15:00,57.3,54.7,30.13,North,5,1.0,5.0,91,0.00,,,0.00,Weather View 32 v70,2013-05-20 08:15:00,
2013-05-20 04:20:00,57.3,54.7,30.13,West,270,0.0,5.0,91,0.00,,,0.00,Weather View 32 v70,2013-05-20 08:20:00,
2013-05-20 04:30:00,57.2,54.6,30.13,SE,142,1.0,5.0,91,0.00,,,0.00,Weather View 32 v70,2013-05-20 08:30:00,
2013-05-20 04:35:00,57.2,54.6,30.13,WSW,255,1.0,5.0,91,0.00,,,0.00,Weather View 32 v70,2013-05-20 08:35:00,
2013-05-20 04:40:00,57.0,54.4,30.13,South,183,2.0,5.0,91,0.00,,,0.00,Weather View 32 v70,2013-05-20 08:40:00,
2013-05-20 04:45:00,57.0,54.4,30.12,SSW,192,2.0,5.0,91,0.00,,,0.00,Weather View 32 v70,2013-05-20 08:45:00,
2013-05-20 04:50:00,57.0,54.7,30.12,South,176,3.0,4.0,92,0.00,,,0.00,Weather View 32 v70,2013-05-20 08:50:00,
2013-05-20 04:55:00,57.0,54.7,30.12,SW,232,2.0,4.0,92,0.00,,,0.00,Weather View 32 v70,2013-05-20 08:55:00,
2013-05-20 05:01:00,57.2,54.9,30.14,SSW,210,2.0,4.0,92,0.00,,,0.00,Weather View 32 v70,2013-05-20 09:01:00,
2013-05-20 05:06:00,57.0,54.7,30.13,SE,141,0.0,4.0,92,0.00,,,0.00,Weather View 32 v70,2013-05-20 09:06:00,
2013-05-20 05:11:00,57.0,54.7,30.14,SW,229,1.0,4.0,92,0.00,,,0.00,Weather View 32 v70,2013-05-20 09:11:00,
2013-05-20 05:17:00,57.0,54.7,30.14,South,182,1.0,4.0,92,0.00,,,0.00,Weather View 32 v70,2013-05-20 09:17:00,
2013-05-20 05:22:00,57.0,54.7,30.14,SE,136,3.0,4.0,92,0.00,,,0.00,Weather View 32 v70,2013-05-20 09:22:00,
2013-05-20 05:28:00,56.8,54.5,30.14,SW,222,2.0,4.0,92,0.00,,,0.00,Weather View 32 v70,2013-05-20 09:28:00,
2013-05-20 05:33:00,56.8,54.5,30.13,SE,145,2.0,4.0,92,0.00,,,0.00,Weather View 32 v70,2013-05-20 09:33:00,
2013-05-20 05:38:00,56.8,54.5,30.14,SSE,150,1.0,4.0,92,0.00,,,0.00,Weather View 32 v70,2013-05-20 09:38:00,
2013-05-20 05:43:00,57.0,54.7,30.14,SSE,148,2.0,4.0,92,0.00,,,0.00,Weather View 32 v70,2013-05-20 09:43:00,
2013-05-20 05:48:00,56.8,54.5,30.14,East,88,2.0,4.0,92,0.00,,,0.00,Weather View 32 v70,2013-05-20 09:48:00,
2013-05-20 05:53:00,57.0,54.7,30.14,ESE,110,2.0,4.0,92,0.00,,,0.00,Weather View 32 v70,2013-05-20 09:53:00,
2013-05-20 05:58:00,57.0,54.7,30.13,SSE,159,2.0,4.0,92,0.00,,,0.00,Weather View 32 v70,2013-05-20 09:58:00,
2013-05-20 06:03:00,57.0,54.7,30.12,ESE,111,2.0,4.0,92,0.00,,,0.00,Weather View 32 v70,2013-05-20 10:03:00,
2013-05-20 06:08:00,57.0,54.7,30.13,South,181,2.0,4.0,92,0.00,,,0.00,Weather View 32 v70,2013-05-20 10:08:00,
2013-05-20 06:13:00,57.0,54.7,30.13,SSE,153,2.0,4.0,92,0.00,,,0.00,Weather View 32 v70,2013-05-20 10:13:00,
2013-05-20 06:18:00,57.2,54.9,30.13,SE,126,3.0,4.0,92,0.00,,,0.00,Weather View 32 v70,2013-05-20 10:18:00,
2013-05-20 06:23:00,57.0,54.7,30.13,ESE,118,3.0,4.0,92,0.00,,,0.00,Weather View 32 v70,2013-05-20 10:23:00,
2013-05-20 06:28:00,57.0,54.7,30.14,ESE,123,4.0,4.0,92,0.00,,,0.00,Weather View 32 v70,2013-05-20 10:28:00,
2013-05-20 06:33:00,57.2,54.9,30.14,NE,39,1.0,4.0,92,0.00,,,0.00,Weather View 32 v70,2013-05-20 10:33:00,
2013-05-20 06:38:00,57.3,55.0,30.14,South,191,1.0,4.0,92,0.00,,,0.00,Weather View 32 v70,2013-05-20 10:38:00,
2013-05-20 06:43:00,57.3,55.0,30.14,South,176,1.0,4.0,92,0.00,,,0.00,Weather View 32 v70,2013-05-20 10:43:00,
2013-05-20 06:48:00,57.3,54.7,30.14,North,355,0.0,4.0,91,0.00,,,0.00,Weather View 32 v70,2013-05-20 10:48:00,
2013-05-20 06:53:00,57.7,55.1,30.14,SW,230,1.0,4.0,91,0.00,,,0.00,Weather View 32 v70,2013-05-20 10:53:00,
2013-05-20 06:58:00,57.5,55.2,30.14,NW,325,1.0,4.0,92,0.00,,,0.00,Weather View 32 v70,2013-05-20 10:58:00,
2013-05-20 07:03:00,57.7,55.1,30.14,WSW,239,1.0,4.0,91,0.00,,,0.00,Weather View 32 v70,2013-05-20 11:03:00,
2013-05-20 07:09:00,57.7,55.1,30.14,SE,139,1.0,4.0,91,0.00,,,0.00,Weather View 32 v70,2013-05-20 11:09:00,
2013-05-20 07:14:00,57.7,55.1,30.14,SE,145,2.0,4.0,91,0.00,,,0.00,Weather View 32 v70,2013-05-20 11:14:00,
2013-05-20 07:19:00,58.1,55.5,30.14,South,184,0.0,4.0,91,0.00,,,0.00,Weather View 32 v70,2013-05-20 11:19:00,
2013-05-20 07:24:00,58.1,55.5,30.14,SE,126,3.0,4.0,91,0.00,,,0.00,Weather View 32 v70,2013-05-20 11:24:00,
2013-05-20 07:29:00,58.2,55.6,30.14,SE,146,3.0,4.0,91,0.00,,,0.00,Weather View 32 v70,2013-05-20 11:29:00,
2013-05-20 07:34:00,58.1,55.5,30.14,South,188,1.0,3.0,91,0.00,,,0.00,Weather View 32 v70,2013-05-20 11:34:00,
2013-05-20 07:39:00,58.2,55.6,30.14,SE,142,2.0,3.0,91,0.00,,,0.00,Weather View 32 v70,2013-05-20 11:39:00,
2013-05-20 07:44:00,58.6,56.0,30.14,SSE,161,1.0,3.0,91,0.00,,,0.00,Weather View 32 v70,2013-05-20 11:44:00,
2013-05-20 07:49:00,58.8,56.2,30.14,East,89,2.0,3.0,91,0.00,,,0.00,Weather View 32 v70,2013-05-20 11:49:00,
2013-05-20 07:54:00,59.1,56.2,30.14,North,358,2.0,3.0,90,0.00,,,0.00,Weather View 32 v70,2013-05-20 11:54:00,
2013-05-20 07:59:00,59.5,56.2,30.14,East,92,1.0,3.0,89,0.00,,,0.00,Weather View 32 v70,2013-05-20 11:59:00,
2013-05-20 08:06:00,59.7,56.1,30.14,SSE,161,2.0,3.0,88,0.00,,,0.00,Weather View 32 v70,2013-05-20 12:06:00,
2013-05-20 08:11:00,59.7,56.1,30.14,ESE,109,3.0,3.0,88,0.00,,,0.00,Weather View 32 v70,2013-05-20 12:11:00,
2013-05-20 08:16:00,59.9,56.0,30.14,ESE,116,3.0,3.0,87,0.00,,,0.00,Weather View 32 v70,2013-05-20 12:16:00,
2013-05-20 08:24:00,60.6,56.4,30.13,SSW,192,2.0,4.0,86,0.00,,,0.00,Weather View 32 v70,2013-05-20 12:24:00,
2013-05-20 08:29:00,60.9,56.7,30.12,South,182,2.0,5.0,86,0.00,,,0.00,Weather View 32 v70,2013-05-20 12:29:00,
2013-05-20 08:34:00,60.9,56.3,30.12,SE,143,3.0,5.0,85,0.00,,,0.00,Weather View 32 v70,2013-05-20 12:34:00,
2013-05-20 08:39:00,60.9,56.3,30.11,SSE,165,4.0,5.0,85,0.00,,,0.00,Weather View 32 v70,2013-05-20 12:39:00,
2013-05-20 08:44:00,60.9,56.3,30.12,ESE,118,4.0,6.0,85,0.00,,,0.00,Weather View 32 v70,2013-05-20 12:44:00,
2013-05-20 08:49:00,61.3,56.4,30.12,East,98,1.0,6.0,84,0.00,,,0.00,Weather View 32 v70,2013-05-20 12:49:00,
2013-05-20 08:54:00,61.8,56.9,30.12,SSE,165,3.0,6.0,84,0.00,,,0.00,Weather View 32 v70,2013-05-20 12:54:00,
2013-05-20 08:59:00,62.2,57.6,30.12,North,8,1.0,6.0,85,0.00,,,0.00,Weather View 32 v70,2013-05-20 12:59:00,
2013-05-20 09:04:00,62.2,57.0,30.12,NE,39,3.0,6.0,83,0.00,,,0.00,Weather View 32 v70,2013-05-20 13:04:00,
2013-05-20 09:09:00,62.4,56.8,30.12,SE,139,2.0,6.0,82,0.00,,,0.00,Weather View 32 v70,2013-05-20 13:09:00,
2013-05-20 09:14:00,62.4,57.2,30.12,SE,145,2.0,6.0,83,0.00,,,0.00,Weather View 32 v70,2013-05-20 13:14:00,
2013-05-20 09:19:00,62.6,57.3,30.12,NE,50,1.0,6.0,83,0.00,,,0.00,Weather View 32 v70,2013-05-20 13:19:00,
2013-05-20 09:24:00,62.9,57.3,30.11,ESE,116,1.0,6.0,82,0.00,,,0.00,Weather View 32 v70,2013-05-20 13:24:00,
2013-05-20 09:29:00,62.9,57.0,30.11,NNW,332,3.0,6.0,81,0.00,,,0.00,Weather View 32 v70,2013-05-20 13:29:00,
2013-05-20 09:34:00,63.3,57.4,30.11,WNW,296,1.0,6.0,81,0.00,,,0.00,Weather View 32 v70,2013-05-20 13:34:00,
2013-05-20 09:39:00,64.0,58.7,30.11,East,88,2.0,6.0,83,0.00,,,0.00,Weather View 32 v70,2013-05-20 13:39:00,
2013-05-20 09:44:00,64.0,57.7,30.11,SSW,206,1.0,4.0,80,0.00,,,0.00,Weather View 32 v70,2013-05-20 13:44:00,
2013-05-20 09:49:00,64.0,57.7,30.10,West,277,0.0,5.0,80,0.00,,,0.00,Weather View 32 v70,2013-05-20 13:49:00,
2013-05-20 09:54:00,65.3,58.6,30.11,WSW,241,2.0,5.0,79,0.00,,,0.00,Weather View 32 v70,2013-05-20 13:54:00,
2013-05-20 09:59:00,65.3,58.6,30.10,NE,36,0.0,5.0,79,0.00,,,0.00,Weather View 32 v70,2013-05-20 13:59:00,
2013-05-20 10:04:00,65.4,58.7,30.11,SSW,193,2.0,5.0,79,0.00,,,0.00,Weather View 32 v70,2013-05-20 14:04:00,
2013-05-20 10:09:00,65.8,59.1,30.11,SSE,151,2.0,5.0,79,0.00,,,0.00,Weather View 32 v70,2013-05-20 14:09:00,
2013-05-20 10:14:00,65.4,58.3,30.11,SSE,156,2.0,5.0,78,0.00,,,0.00,Weather View 32 v70,2013-05-20 14:14:00,
2013-05-20 10:20:00,65.4,58.7,30.10,SSE,149,3.0,5.0,79,0.00,,,0.00,Weather View 32 v70,2013-05-20 14:20:00,
2013-05-20 10:25:00,65.6,58.9,30.10,NE,47,3.0,5.0,79,0.00,,,0.00,Weather View 32 v70,2013-05-20 14:25:00,
2013-05-20 10:30:00,65.8,58.7,30.09,SSE,155,4.0,5.0,78,0.00,,,0.00,Weather View 32 v70,2013-05-20 14:30:00,
2013-05-20 10:35:00,66.2,59.1,30.09,SE,131,2.0,5.0,78,0.00,,,0.00,Weather View 32 v70,2013-05-20 14:35:00,
2013-05-20 10:40:00,66.5,59.0,30.09,East,98,4.0,5.0,77,0.00,,,0.00,Weather View 32 v70,2013-05-20 14:40:00,
2013-05-20 10:45:00,66.9,59.8,30.08,NNW,328,0.0,6.0,78,0.00,,,0.00,Weather View 32 v70,2013-05-20 14:45:00,
2013-05-20 10:50:00,67.8,59.6,30.07,SW,227,3.0,6.0,75,0.00,,,0.00,Weather View 32 v70,2013-05-20 14:50:00,
2013-05-20 10:55:00,68.3,60.4,30.07,SE,139,3.0,6.0,76,0.00,,,0.00,Weather View 32 v70,2013-05-20 14:55:00,
2013-05-20 11:01:00,68.7,59.7,30.07,SSW,192,2.0,6.0,73,0.00,,,0.00,Weather View 32 v70,2013-05-20 15:01:00,
2013-05-20 11:06:00,68.7,59.7,30.06,SSE,158,3.0,6.0,73,0.00,,,0.00,Weather View 32 v70,2013-05-20 15:06:00,
2013-05-20 11:11:00,69.0,61.1,30.06,SE,124,2.0,6.0,76,0.00,,,0.00,Weather View 32 v70,2013-05-20 15:11:00,
2013-05-20 11:16:00,69.8,59.9,30.06,SE,128,3.0,6.0,71,0.00,,,0.00,Weather View 32 v70,2013-05-20 15:16:00,
2013-05-20 11:21:00,70.3,61.2,30.05,North,10,3.0,8.0,73,0.00,,,0.00,Weather View 32 v70,2013-05-20 15:21:00,
2013-05-20 11:26:00,70.7,60.4,30.05,ENE,66,2.0,8.0,70,0.00,,,0.00,Weather View 32 v70,2013-05-20 15:26:00,
2013-05-20 11:31:00,71.0,60.3,30.04,WSW,246,1.0,8.0,69,0.00,,,0.00,Weather View 32 v70,2013-05-20 15:31:00,
2013-05-20 11:36:00,71.2,60.5,30.04,SSE,162,3.0,8.0,69,0.00,,,0.00,Weather View 32 v70,2013-05-20 15:36:00,
2013-05-20 11:41:00,70.8,60.5,30.04,WSW,254,0.0,8.0,70,0.00,,,0.00,Weather View 32 v70,2013-05-20 15:41:00,
2013-05-20 11:46:00,71.4,61.1,30.04,NNE,12,2.0,8.0,70,0.00,,,0.00,Weather View 32 v70,2013-05-20 15:46:00,
2013-05-20 11:51:00,72.5,61.7,30.04,NNE,19,1.0,8.0,69,0.00,,,0.00,Weather View 32 v70,2013-05-20 15:51:00,
2013-05-20 11:56:00,72.3,59.8,30.03,NW,312,4.0,8.0,65,0.00,,,0.00,Weather View 32 v70,2013-05-20 15:56:00,
2013-05-20 12:01:00,71.9,60.3,30.03,NNW,335,2.0,8.0,67,0.00,,,0.00,Weather View 32 v70,2013-05-20 16:01:00,
2013-05-20 12:06:00,72.8,60.7,30.03,North,354,4.0,8.0,66,0.00,,,0.00,Weather View 32 v70,2013-05-20 16:06:00,
2013-05-20 12:11:00,72.5,60.5,30.03,NE,41,2.0,8.0,66,0.00,,,0.00,Weather View 32 v70,2013-05-20 16:11:00,
2013-05-20 12:16:00,73.7,62.0,30.03,WSW,258,1.0,8.0,67,0.00,,,0.00,Weather View 32 v70,2013-05-20 16:16:00,
2013-05-20 12:21:00,74.3,60.8,30.02,SE,146,2.0,8.0,63,0.00,,,0.00,Weather View 32 v70,2013-05-20 16:21:00,
2013-05-20 12:26:00,74.8,61.8,30.01,NNE,23,2.0,8.0,64,0.00,,,0.00,Weather View 32 v70,2013-05-20 16:26:00,
2013-05-20 12:31:00,74.4,62.3,30.01,SSW,204,1.0,8.0,66,0.00,,,0.00,Weather View 32 v70,2013-05-20 16:31:00,
2013-05-20 12:36:00,74.4,61.8,30.00,ENE,59,2.0,8.0,65,0.00,,,0.00,Weather View 32 v70,2013-05-20 16:36:00,
2013-05-20 12:41:00,74.4,63.1,30.00,South,170,3.0,5.0,68,0.00,,,0.00,Weather View 32 v70,2013-05-20 16:41:00,
2013-05-20 12:46:00,74.8,61.8,30.00,East,96,1.0,5.0,64,0.00,,,0.00,Weather View 32 v70,2013-05-20 16:46:00,
2013-05-20 12:51:00,75.3,62.2,30.00,SE,126,2.0,5.0,64,0.00,,,0.00,Weather View 32 v70,2013-05-20 16:51:00,
2013-05-20 12:56:00,76.1,63.0,29.99,ENE,58,1.0,5.0,64,0.00,,,0.00,Weather View 32 v70,2013-05-20 16:56:00,
2013-05-20 13:01:00,76.8,62.7,29.99,ESE,115,2.0,5.0,62,0.00,,,0.00,Weather View 32 v70,2013-05-20 17:01:00,
2013-05-20 13:06:00,77.1,63.9,29.99,NNE,31,1.0,5.0,64,0.00,,,0.00,Weather View 32 v70,2013-05-20 17:06:00,
2013-05-20 13:11:00,77.5,63.9,29.98,NNE,13,2.0,5.0,63,0.00,,,0.00,Weather View 32 v70,2013-05-20 17:11:00,
2013-05-20 13:16:00,77.9,63.3,29.98,East,80,2.0,5.0,61,0.00,,,0.00,Weather View 32 v70,2013-05-20 17:16:00,
2013-05-20 13:21:00,77.9,62.4,29.98,NNE,18,4.0,5.0,59,0.00,,,0.00,Weather View 32 v70,2013-05-20 17:21:00,
2013-05-20 13:26:00,78.2,62.6,29.98,NNW,337,1.0,5.0,59,0.00,,,0.00,Weather View 32 v70,2013-05-20 17:26:00,
2013-05-20 13:31:00,78.8,63.2,29.98,NNE,21,2.0,5.0,59,0.00,,,0.00,Weather View 32 v70,2013-05-20 17:31:00,
2013-05-20 13:37:00,78.9,64.3,29.97,NW,320,2.0,5.0,61,0.00,,,0.00,Weather View 32 v70,2013-05-20 17:37:00,
2013-05-20 13:42:00,79.5,63.4,29.97,NNW,335,2.0,5.0,58,0.00,,,0.00,Weather View 32 v70,2013-05-20 17:42:00,
2013-05-20 13:47:00,79.5,63.4,29.97,SE,140,1.0,5.0,58,0.00,,,0.00,Weather View 32 v70,2013-05-20 17:47:00,
2013-05-20 13:52:00,79.8,63.2,29.97,SE,142,1.0,5.0,57,0.00,,,0.00,Weather View 32 v70,2013-05-20 17:52:00,
2013-05-20 13:57:00,79.8,64.1,29.97,ENE,67,3.0,5.0,59,0.00,,,0.00,Weather View 32 v70,2013-05-20 17:57:00,
2013-05-20 14:02:00,79.1,64.0,29.97,South,170,2.0,5.0,60,0.00,,,0.00,Weather View 32 v70,2013-05-20 18:02:00,
2013-05-20 14:07:00,79.5,63.9,29.97,ESE,122,1.0,5.0,59,0.00,,,0.00,Weather View 32 v70,2013-05-20 18:07:00,
2013-05-20 14:12:00,79.7,64.0,29.97,SSW,204,1.0,5.0,59,0.00,,,0.00,Weather View 32 v70,2013-05-20 18:12:00,
2013-05-20 14:17:00,80.0,64.8,29.97,SSE,157,2.0,5.0,60,0.00,,,0.00,Weather View 32 v70,2013-05-20 18:17:00,
2013-05-20 14:22:00,80.0,64.3,29.97,SSE,150,3.0,6.0,59,0.00,,,0.00,Weather View 32 v70,2013-05-20 18:22:00,
2013-05-20 14:27:00,80.2,65.9,29.97,ENE,59,2.0,6.0,62,0.00,,,0.00,Weather View 32 v70,2013-05-20 18:27:00,
2013-05-20 14:32:00,80.6,63.4,29.96,NW,310,1.0,6.0,56,0.00,,,0.00,Weather View 32 v70,2013-05-20 18:32:00,
2013-05-20 14:37:00,80.7,63.5,29.96,SW,214,2.0,6.0,56,0.00,,,0.00,Weather View 32 v70,2013-05-20 18:37:00,
2013-05-20 14:42:00,80.2,63.5,29.96,NW,310,2.0,6.0,57,0.00,,,0.00,Weather View 32 v70,2013-05-20 18:42:00,
2013-05-20 14:48:00,79.7,63.6,29.96,NE,36,1.0,6.0,58,0.00,,,0.00,Weather View 32 v70,2013-05-20 18:48:00,
2013-05-20 14:53:00,80.0,64.8,29.96,East,82,2.0,6.0,60,0.00,,,0.00,Weather View 32 v70,2013-05-20 18:53:00,
2013-05-20 14:58:00,80.2,64.0,29.96,North,4,3.0,6.0,58,0.00,,,0.00,Weather View 32 v70,2013-05-20 18:58:00,
2013-05-20 15:03:00,80.4,63.7,29.95,NW,325,4.0,6.0,57,0.00,,,0.00,Weather View 32 v70,2013-05-20 19:03:00,
2013-05-20 15:08:00,80.2,64.0,29.94,South,186,2.0,6.0,58,0.00,,,0.00,Weather View 32 v70,2013-05-20 19:08:00,
2013-05-20 15:13:00,80.2,63.5,29.94,SSW,207,3.0,6.0,57,0.00,,,0.00,Weather View 32 v70,2013-05-20 19:13:00,
2013-05-20 15:18:00,80.2,65.0,29.94,North,10,1.0,6.0,60,0.00,,,0.00,Weather View 32 v70,2013-05-20 19:18:00,
2013-05-20 15:23:00,80.4,63.2,29.94,ESE,112,3.0,6.0,56,0.00,,,0.00,Weather View 32 v70,2013-05-20 19:23:00,
2013-05-20 15:28:00,80.6,63.4,29.93,SSE,161,4.0,6.0,56,0.00,,,0.00,Weather View 32 v70,2013-05-20 19:28:00,
2013-05-20 15:33:00,80.9,63.7,29.93,SSE,152,2.0,6.0,56,0.00,,,0.00,Weather View 32 v70,2013-05-20 19:33:00,
2013-05-20 15:38:00,80.6,63.4,29.93,East,99,0.0,6.0,56,0.00,,,0.00,Weather View 32 v70,2013-05-20 19:38:00,
2013-05-20 15:44:00,80.6,64.4,29.93,SSE,150,3.0,6.0,58,0.00,,,0.00,Weather View 32 v70,2013-05-20 19:44:00,
2013-05-20 15:49:00,80.4,63.7,29.94,SSE,148,2.0,6.0,57,0.00,,,0.00,Weather View 32 v70,2013-05-20 19:49:00,
2013-05-20 15:54:00,80.4,63.2,29.94,SW,232,0.0,6.0,56,0.00,,,0.00,Weather View 32 v70,2013-05-20 19:54:00,
2013-05-20 15:59:00,80.2,64.0,29.94,NNW,335,3.0,6.0,58,0.00,,,0.00,Weather View 32 v70,2013-05-20 19:59:00,
2013-05-20 16:04:00,80.2,63.5,29.94,SSW,208,1.0,6.0,57,0.00,,,0.00,Weather View 32 v70,2013-05-20 20:04:00,
2013-05-20 16:09:00,80.4,63.2,29.94,NNW,344,1.0,6.0,56,0.00,,,0.00,Weather View 32 v70,2013-05-20 20:09:00,
2013-05-20 16:14:00,80.6,64.4,29.93,SSE,155,1.0,5.0,58,0.00,,,0.00,Weather View 32 v70,2013-05-20 20:14:00,
2013-05-20 16:19:00,80.9,63.2,29.94,East,93,2.0,5.0,55,0.00,,,0.00,Weather View 32 v70,2013-05-20 20:19:00,
2013-05-20 16:24:00,81.5,64.2,29.94,NNW,334,0.0,5.0,56,0.00,,,0.00,Weather View 32 v70,2013-05-20 20:24:00,
2013-05-20 16:29:00,80.9,63.2,29.94,ENE,60,2.0,7.0,55,0.00,,,0.00,Weather View 32 v70,2013-05-20 20:29:00,
2013-05-20 16:35:00,80.9,63.2,29.93,NNW,332,3.0,7.0,55,0.00,,,0.00,Weather View 32 v70,2013-05-20 20:35:00,
2013-05-20 16:40:00,80.6,63.9,29.94,NNE,28,2.0,7.0,57,0.00,,,0.00,Weather View 32 v70,2013-05-20 20:40:00,
2013-05-20 16:45:00,81.1,63.9,29.93,NNW,347,3.0,7.0,56,0.00,,,0.00,Weather View 32 v70,2013-05-20 20:45:00,
2013-05-20 16:51:00,81.3,65.1,29.93,NE,36,2.0,7.0,58,0.00,,,0.00,Weather View 32 v70,2013-05-20 20:51:00,
2013-05-20 16:56:00,81.6,64.3,29.93,ENE,69,3.0,7.0,56,0.00,,,0.00,Weather View 32 v70,2013-05-20 20:56:00,
2013-05-20 17:01:00,81.8,64.5,29.93,WNW,296,3.0,7.0,56,0.00,,,0.00,Weather View 32 v70,2013-05-20 21:01:00,
2013-05-20 17:06:00,81.8,64.0,29.93,ENE,58,1.0,7.0,55,0.00,,,0.00,Weather View 32 v70,2013-05-20 21:06:00,
2013-05-20 17:12:00,82.0,64.2,29.93,WSW,255,1.0,7.0,55,0.00,,,0.00,Weather View 32 v70,2013-05-20 21:12:00,
2013-05-20 17:17:00,81.8,64.5,29.93,NNW,330,2.0,7.0,56,0.00,,,0.00,Weather View 32 v70,2013-05-20 21:17:00,
2013-05-20 17:22:00,81.8,65.0,29.93,NW,316,2.0,7.0,57,0.00,,,0.00,Weather View 32 v70,2013-05-20 21:22:00,
2013-05-20 17:27:00,81.5,64.2,29.93,North,355,4.0,7.0,56,0.00,,,0.00,Weather View 32 v70,2013-05-20 21:27:00,
2013-05-20 17:32:00,81.5,64.2,29.92,NNW,340,1.0,5.0,56,0.00,,,0.00,Weather View 32 v70,2013-05-20 21:32:00,
2013-05-20 17:37:00,81.1,63.9,29.92,NNE,14,3.0,5.0,56,0.00,,,0.00,Weather View 32 v70,2013-05-20 21:37:00,
2013-05-20 17:42:00,80.9,63.7,29.92,NNW,334,2.0,5.0,56,0.00,,,0.00,Weather View 32 v70,2013-05-20 21:42:00,
2013-05-20 17:47:00,80.7,63.5,29.92,NW,316,0.0,5.0,56,0.00,,,0.00,Weather View 32 v70,2013-05-20 21:47:00,
2013-05-20 17:52:00,80.7,63.5,29.92,NW,324,3.0,5.0,56,0.00,,,0.00,Weather View 32 v70,2013-05-20 21:52:00,
2013-05-20 17:57:00,80.9,64.2,29.92,NE,41,1.0,5.0,57,0.00,,,0.00,Weather View 32 v70,2013-05-20 21:57:00,
2013-05-20 18:02:00,81.3,63.5,29.92,North,9,0.0,5.0,55,0.00,,,0.00,Weather View 32 v70,2013-05-20 22:02:00,
2013-05-20 18:07:00,81.3,63.5,29.92,SE,130,3.0,5.0,55,0.00,,,0.00,Weather View 32 v70,2013-05-20 22:07:00,
2013-05-20 18:12:00,81.3,63.5,29.92,SE,132,2.0,5.0,55,0.00,,,0.00,Weather View 32 v70,2013-05-20 22:12:00,
2013-05-20 18:17:00,81.3,64.0,29.92,SE,126,2.0,5.0,56,0.00,,,0.00,Weather View 32 v70,2013-05-20 22:17:00,
2013-05-20 18:22:00,81.3,63.5,29.92,SE,138,3.0,5.0,55,0.00,,,0.00,Weather View 32 v70,2013-05-20 22:22:00,
2013-05-20 18:27:00,81.1,63.9,29.92,SSW,194,2.0,5.0,56,0.00,,,0.00,Weather View 32 v70,2013-05-20 22:27:00,
2013-05-20 18:33:00,80.9,63.7,29.93,ESE,107,2.0,5.0,56,0.00,,,0.00,Weather View 32 v70,2013-05-20 22:33:00,
2013-05-20 18:38:00,80.6,63.9,29.92,SSE,161,2.0,5.0,57,0.00,,,0.00,Weather View 32 v70,2013-05-20 22:38:00,
2013-05-20 18:43:00,80.2,64.0,29.93,South,186,2.0,5.0,58,0.00,,,0.00,Weather View 32 v70,2013-05-20 22:43:00,
2013-05-20 18:48:00,80.2,63.5,29.93,SE,125,3.0,4.0,57,0.00,,,0.00,Weather View 32 v70,2013-05-20 22:48:00,
2013-05-20 18:53:00,80.0,63.8,29.93,SE,129,2.0,4.0,58,0.00,,,0.00,Weather View 32 v70,2013-05-20 22:53:00,
2013-05-20 18:58:00,80.0,64.3,29.93,SE,142,1.0,4.0,59,0.00,,,0.00,Weather View 32 v70,2013-05-20 22:58:00,
2013-05-20 19:03:00,79.8,63.7,29.93,SSE,147,1.0,4.0,58,0.00,,,0.00,Weather View 32 v70,2013-05-20 23:03:00,
2013-05-20 19:08:00,79.7,64.0,29.92,SSW,199,2.0,4.0,59,0.00,,,0.00,Weather View 32 v70,2013-05-20 23:08:00,
2013-05-20 19:13:00,79.7,64.0,29.93,ESE,115,2.0,4.0,59,0.00,,,0.00,Weather View 32 v70,2013-05-20 23:13:00,
2013-05-20 19:18:00,79.5,64.3,29.93,SSE,163,2.0,4.0,60,0.00,,,0.00,Weather View 32 v70,2013-05-20 23:18:00,
2013-05-20 19:23:00,79.1,64.4,29.93,SSE,163,2.0,4.0,61,0.00,,,0.00,Weather View 32 v70,2013-05-20 23:23:00,
2013-05-20 19:28:00,78.8,64.6,29.92,ESE,114,1.0,4.0,62,0.00,,,0.00,Weather View 32 v70,2013-05-20 23:28:00,
2013-05-20 19:33:00,78.2,64.1,29.92,SSE,156,2.0,4.0,62,0.00,,,0.00,Weather View 32 v70,2013-05-20 23:33:00,
2013-05-20 19:38:00,78.0,63.9,29.92,SE,139,2.0,4.0,62,0.00,,,0.00,Weather View 32 v70,2013-05-20 23:38:00,
2013-05-20 19:43:00,77.7,64.1,29.93,SE,129,1.0,4.0,63,0.00,,,0.00,Weather View 32 v70,2013-05-20 23:43:00,
2013-05-20 19:48:00,77.3,64.1,29.93,SE,134,1.0,4.0,64,0.00,,,0.00,Weather View 32 v70,2013-05-20 23:48:00,
2013-05-20 19:53:00,77.0,64.3,29.93,SW,227,1.0,4.0,65,0.00,,,0.00,Weather View 32 v70,2013-05-20 23:53:00,
2013-05-20 19:58:00,76.8,65.0,29.94,SW,235,2.0,4.0,67,0.00,,,0.00,Weather View 32 v70,2013-05-20 23:58:00,
2013-05-20 20:04:00,76.1,64.7,29.94,West,268,0.0,4.0,68,0.00,,,0.00,Weather View 32 v70,2013-05-21 00:04:00,
2013-05-20 20:09:00,75.0,64.9,29.94,SW,218,2.0,4.0,71,0.00,,,0.00,Weather View 32 v70,2013-05-21 00:09:00,
2013-05-20 20:14:00,74.3,65.1,29.94,SSE,158,0.0,4.0,73,0.00,,,0.00,Weather View 32 v70,2013-05-21 00:14:00,
2013-05-20 20:19:00,73.5,64.7,29.94,SW,220,1.0,4.0,74,0.00,,,0.00,Weather View 32 v70,2013-05-21 00:19:00,
2013-05-20 20:24:00,72.5,64.5,29.94,SW,217,1.0,4.0,76,0.00,,,0.00,Weather View 32 v70,2013-05-21 00:24:00,
2013-05-20 20:30:00,71.9,63.5,29.94,WNW,293,0.0,4.0,75,0.00,,,0.00,Weather View 32 v70,2013-05-21 00:30:00,
2013-05-20 20:34:00,71.2,63.6,29.94,South,188,0.0,4.0,77,0.00,,,0.00,Weather View 32 v70,2013-05-21 00:34:00,
2013-05-20 20:40:00,70.8,63.6,29.95,North,349,1.0,4.0,78,0.00,,,0.00,Weather View 32 v70,2013-05-21 00:40:00,
2013-05-20 20:45:00,69.8,63.3,29.96,NW,312,1.0,2.0,80,0.00,,,0.00,Weather View 32 v70,2013-05-21 00:45:00,
2013-05-20 20:50:00,69.4,63.3,29.97,NNW,336,0.0,2.0,81,0.00,,,0.00,Weather View 32 v70,2013-05-21 00:50:00,
2013-05-20 20:55:00,68.7,63.3,29.97,SSW,211,1.0,2.0,83,0.00,,,0.00,Weather View 32 v70,2013-05-21 00:55:00,
2013-05-20 21:00:00,68.3,62.9,29.97,NNW,330,0.0,2.0,83,0.00,,,0.00,Weather View 32 v70,2013-05-21 01:00:00,
2013-05-20 21:05:00,68.0,63.3,29.97,SW,228,0.0,2.0,85,0.00,,,0.00,Weather View 32 v70,2013-05-21 01:05:00,
2013-05-20 21:10:00,67.8,63.1,29.97,NNE,33,0.0,2.0,85,0.00,,,0.00,Weather View 32 v70,2013-05-21 01:10:00,
2013-05-20 21:16:00,67.2,62.5,29.98,North,5,0.0,2.0,85,0.00,,,0.00,Weather View 32 v70,2013-05-21 01:16:00,
2013-05-20 21:21:00,66.7,62.4,29.98,West,278,1.0,2.0,86,0.00,,,0.00,Weather View 32 v70,2013-05-21 01:21:00,
2013-05-20 21:26:00,66.7,62.4,29.98,NE,49,0.0,1.0,86,0.00,,,0.00,Weather View 32 v70,2013-05-21 01:26:00,
2013-05-20 21:31:00,66.2,62.2,29.98,NNE,24,0.0,1.0,87,0.00,,,0.00,Weather View 32 v70,2013-05-21 01:31:00,
2013-05-20 21:37:00,66.0,62.0,29.98,WNW,285,0.0,1.0,87,0.00,,,0.00,Weather View 32 v70,2013-05-21 01:37:00,
2013-05-20 21:42:00,66.2,62.5,29.99,NW,325,1.0,1.0,88,0.00,,,0.00,Weather View 32 v70,2013-05-21 01:42:00,
2013-05-20 21:47:00,65.8,62.1,29.99,WNW,298,0.0,1.0,88,0.00,,,0.00,Weather View 32 v70,2013-05-21 01:47:00,
2013-05-20 21:52:00,65.4,61.7,29.99,SW,231,0.0,1.0,88,0.00,,,0.00,Weather View 32 v70,2013-05-21 01:52:00,
2013-05-20 21:57:00,65.3,61.6,30.00,NNW,328,0.0,1.0,88,0.00,,,0.00,Weather View 32 v70,2013-05-21 01:57:00,
2013-05-20 22:02:00,65.3,61.6,30.00,NNW,342,0.0,1.0,88,0.00,,,0.00,Weather View 32 v70,2013-05-21 02:02:00,
2013-05-20 22:07:00,65.1,61.8,30.00,NW,311,0.0,1.0,89,0.00,,,0.00,Weather View 32 v70,2013-05-21 02:07:00,
2013-05-20 22:12:00,65.3,62.0,30.00,NNW,339,1.0,1.0,89,0.00,,,0.00,Weather View 32 v70,2013-05-21 02:12:00,
2013-05-20 22:17:00,64.9,61.6,29.99,North,350,0.0,1.0,89,0.00,,,0.00,Weather View 32 v70,2013-05-21 02:17:00,
2013-05-20 22:22:00,64.5,61.5,30.00,WSW,255,0.0,1.0,90,0.00,,,0.00,Weather View 32 v70,2013-05-21 02:22:00,
2013-05-20 22:27:00,64.2,61.2,30.01,WSW,245,1.0,1.0,90,0.00,,,0.00,Weather View 32 v70,2013-05-21 02:27:00,
2013-05-20 22:32:00,64.2,61.2,29.99,SSW,212,0.0,1.0,90,0.00,,,0.00,Weather View 32 v70,2013-05-21 02:32:00,
2013-05-20 22:37:00,64.0,61.0,29.99,SSW,194,0.0,1.0,90,0.00,,,0.00,Weather View 32 v70,2013-05-21 02:37:00,
2013-05-20 22:42:00,64.0,61.3,29.99,WNW,299,1.0,1.0,91,0.00,,,0.00,Weather View 32 v70,2013-05-21 02:42:00,
2013-05-20 22:47:00,63.6,60.9,30.00,NW,322,0.0,1.0,91,0.00,,,0.00,Weather View 32 v70,2013-05-21 02:47:00,
2013-05-20 22:52:00,63.5,60.5,30.00,WSW,257,0.0,1.0,90,0.00,,,0.00,Weather View 32 v70,2013-05-21 02:52:00,
2013-05-20 22:57:00,63.5,60.8,30.00,NNE,26,0.0,1.0,91,0.00,,,0.00,Weather View 32 v70,2013-05-21 02:57:00,
2013-05-20 23:02:00,63.3,60.0,30.00,East,82,0.0,1.0,89,0.00,,,0.00,Weather View 32 v70,2013-05-21 03:02:00,
2013-05-20 23:07:00,63.1,59.8,29.99,SSW,197,0.0,1.0,89,0.00,,,0.00,Weather View 32 v70,2013-05-21 03:07:00,
2013-05-20 23:12:00,63.3,60.0,30.00,North,360,1.0,1.0,89,0.00,,,0.00,Weather View 32 v70,2013-05-21 03:12:00,
2013-05-20 23:17:00,63.3,60.0,30.00,NNW,333,1.0,1.0,89,0.00,,,0.00,Weather View 32 v70,2013-05-21 03:17:00,
2013-05-20 23:23:00,63.1,60.1,30.00,WNW,291,1.0,1.0,90,0.00,,,0.00,Weather View 32 v70,2013-05-21 03:23:00,
2013-05-20 23:28:00,62.7,59.7,30.00,WSW,243,0.0,2.0,90,0.00,,,0.00,Weather View 32 v70,2013-05-21 03:28:00,
2013-05-20 23:33:00,62.9,59.9,30.01,West,274,1.0,2.0,90,0.00,,,0.00,Weather View 32 v70,2013-05-21 03:33:00,
2013-05-20 23:38:00,62.6,59.6,30.01,West,273,0.0,2.0,90,0.00,,,0.00,Weather View 32 v70,2013-05-21 03:38:00,
2013-05-20 23:43:00,62.6,59.6,30.01,NW,305,0.0,2.0,90,0.00,,,0.00,Weather View 32 v70,2013-05-21 03:43:00,
2013-05-20 23:48:00,62.4,59.4,30.01,WNW,289,1.0,2.0,90,0.00,,,0.00,Weather View 32 v70,2013-05-21 03:48:00,
2013-05-20 23:53:00,62.6,59.6,30.02,North,4,1.0,2.0,90,0.00,,,0.00,Weather View 32 v70,2013-05-21 03:53:00,
2013-05-20 23:58:00,62.4,59.4,30.01,NW,319,1.0,2.0,90,0.00,,,0.00,Weather View 32 v70,2013-05-21 03:58:00,